Flag Weather past 2 weeks in Tuba City, Arizona, U.S.A.

Now
55 °F

Sunny.


Feels Like: 55 °F
Forecast: 31 / 63 °F
Wind: 3 mph from Northeast

Location: Grand Canyon National Park Airport

Current Time: Nov 27, 2014 at 5:54:38 PM

Latest Report: Nov 27, 2014 at 4:54 PM


Visibility: 10 mi

Pressure: 30.33 "Hg

Humidity: 17%

Dew point: 11 °F

Location of Tuba CityLocation

Historic Weather in Tuba City — Graph

°F

Tuba City temperature yesterday

Maximum temperature yesterday: 61 °F (at 1:54 PM)
Minimum temperature yesterday: 16 °F (at 6:54 AM)
Average temperature yesterday: 34 °F

Past Weeks' High & Low Weather Summary

 TemperatureHumidityPressure
High66 °F (Nov 27, 2:54 PM)100% (Nov 15, 3:54 AM)30.58 "Hg (Nov 15, 3:54 AM)
Low4 °F (Nov 24, 6:54 AM)6% (Nov 19, 12:54 PM)29.84 "Hg (Nov 15, 3:54 PM)
Average33 °F49%30.19 "Hg
* Reported Nov 12 4:54 PM — Nov 27 4:54 PM, Tuba City, Weather by CustomWeather, © 2014

Note: Actual official high and low records may vary slightly from our data, if they occured in-between our weather recording intervals... More about our weather records

Advertising

Tuba City weather history for previous 24 hours

 ConditionsComfort  
Time TempWeatherWind HumidityBarometerVisibility
4:54 PM
Nov 27
55 °FSunny.3 mph17%30.33 "Hg10 mi
3:54 PM64 °FSunny.5 mph8%30.28 "Hg10 mi
2:54 PM66 °FSunny.3 mph8%30.28 "Hg10 mi
1:54 PM65 °FSunny.8 mph8%30.29 "Hg10 mi
12:54 PM65 °FSunny.5 mph8%30.31 "Hg10 mi
11:54 AM63 °FSunny.6 mph11%30.36 "Hg10 mi
10:54 AM61 °FSunny.7 mph14%30.39 "Hg10 mi
9:54 AM57 °FSunny.6 mph18%30.42 "Hg10 mi
8:54 AM49 °FSunny.6 mph27%30.43 "Hg10 mi
7:54 AM19 °FSunny.6 mph62%30.56 "Hg10 mi
6:54 AM15 °FClear.No wind70%30.55 "Hg10 mi
5:54 AM16 °FClear.No wind67%30.53 "Hg10 mi
4:54 AM14 °FClear.5 mph67%30.44 "Hg10 mi
3:54 AM17 °FClear.No wind64%30.41 "Hg10 mi
2:54 AM17 °FClear.No wind64%30.43 "Hg10 mi
1:54 AM21 °FClear.7 mph57%30.40 "Hg7 mi
12:54 AM21 °FClear.7 mph55%30.42 "Hg10 mi
11:54 PM
Nov 26
19 °FClear.No wind57%30.44 "Hg10 mi
10:54 PM21 °FClear.No wind55%30.44 "Hg10 mi
9:54 PM21 °FClear.5 mph55%30.45 "Hg10 mi
8:54 PM25 °FClear.3 mph50%30.50 "Hg10 mi
7:54 PM27 °FClear.3 mph51%30.55 "Hg10 mi
6:54 PM31 °FClear.3 mph47%30.54 "Hg10 mi
5:54 PM34 °FClear.No wind40%30.51 "Hg10 mi
Weather by CustomWeather, © 2014

See weather overviewHow to use our weather pages